Powrót do katalogu

FENGYUN 1C DEB

AktywnyPO
NORAD 31566·DEBRIS·🇨🇳 China

Wystrzelony May 10, 1999 z Taiyuan Satellite Launch Center

Loading…

Następne Przeloty (najbliższe 24 godziny)

TLE

ŚwieżeSource: Space-Track

Epoka: Sep 13, 2026, 22:28 UTC

1 31566U 99025BZH 26256.93679078  .00003264  00000-0  10429-2 0  9999
2 31566  98.9359 332.4241 0023207 259.5905 158.5631 14.40238447  3463

Śledź FENGYUN 1C DEB w czasie rzeczywistym z AllMySat

Download on the App Store